This is the latest recevied weather packets stored in our database for station/object SP9KB-13. If no packets are shown the sender has not sent any weather packets the latest 10 day(s).
| Time | Temp. | Humidity | Pressure | Rain* | Wind** | Luminosity | Snow |
|---|---|---|---|---|---|---|---|
| 1777311222 | 8.33° C | 44% | 1000.8 hPa | 0 mm | - | - | - |
| 1777310921 | 8.33° C | 45% | 1000.9 hPa | 0 mm | - | - | - |
| 1777310620 | 9.44° C | 41% | 1000.7 hPa | 0 mm | - | - | - |
| 1777310320 | 10.56° C | 36% | 1000.6 hPa | 0 mm | - | - | - |
| 1777310019 | 10.56° C | 34% | 1000.7 hPa | 0 mm | - | - | - |
| 1777309719 | 11.67° C | 33% | 1000.8 hPa | 0 mm | - | - | - |
| 1777309418 | 11.67° C | 32% | 1000.7 hPa | 0 mm | - | - | - |
| 1777309117 | 11.11° C | 33% | 1000.6 hPa | 0 mm | - | - | - |
| 1777308817 | 11.67° C | 32% | 1000.6 hPa | 0 mm | - | - | - |
| 1777308516 | 12.22° C | 32% | 1000.7 hPa | 0 mm | - | - | - |
| 1777308216 | 11.67° C | 31% | 1000.9 hPa | 0 mm | - | - | - |
| 1777307915 | 12.22° C | 31% | 1000.6 hPa | 0 mm | - | - | - |
| 1777307614 | 12.22° C | 30% | 1000.4 hPa | 0 mm | - | - | - |
| 1777307314 | 12.22° C | 31% | 1000.6 hPa | 0 mm | - | - | - |
| 1777307017 | 12.22° C | 32% | 1000.4 hPa | 0 mm | - | - | - |
| 1777306713 | 12.22° C | 31% | 1000.5 hPa | 0 mm | - | - | - |
| 1777306412 | 12.78° C | 32% | 1000.6 hPa | 0 mm | - | - | - |
| 1777306112 | 12.78° C | 30% | 1000.5 hPa | 0 mm | - | - | - |
| 1777305811 | 12.78° C | 29% | 1000.5 hPa | 0 mm | - | - | - |
| 1777305510 | 13.33° C | 31% | 1000.5 hPa | 0 mm | - | - | - |
| 1777305210 | 13.33° C | 29% | 1000.6 hPa | 0 mm | - | - | - |
| 1777304909 | 13.33° C | 28% | 1000.8 hPa | 0 mm | - | - | - |
| 1777304608 | 13.33° C | 29% | 1000.5 hPa | 0 mm | - | - | - |
| 1777304308 | 13.33° C | 29% | 1000.6 hPa | 0 mm | - | - | - |
| 1777304007 | 13.89° C | 28% | 1000.5 hPa | 0 mm | - | - | - |
* Rain latest hour (hover to see other rain measurements)
** Current wind speed in m/s (hover to see current wind gust speed)